Weather History for Havre, MT

Change the Weather History Date:

Saturday, March 9, 2013

  Actual Average Record
Temperature  
Mean Temperature 28 °F 30 °F  
Max Temperature 40 °F 41 °F 65 °F (1983)
Min Temperature 15 °F 18 °F -27 °F (2002)
Degree Days  
Heating Degree Days 37 35  
Month to date heating degree days 332 334  
Since 1 July heating degree days 6148 6454  
Cooling Degree Days 0 0  
Month to date cooling degree days 0 0  
Year to date cooling degree days 0 0  
Moisture  
Dew Point 19 °F    
Average Humidity 66    
Maximum Humidity 92    
Minimum Humidity 40    
Precipitation  
Precipitation 0.00 in 0.02 in 0.63 in (1921)
Month to date precipitation 0.16 0.12  
Year to date precipitation 1.68 0.73  
Snow  
Snow 0.00 in 0.30 in 2.00 in (1910)
Month to date snowfall 1.5 1.9  
Since 1 July snowfall 45.7 29.8  
Snow Depth 0.00 in    
Sea Level Pressure  
Sea Level Pressure 30.21 in    
Wind  
Wind Speed 8 mph (WNW)    
Max Wind Speed 20 mph    
Max Gust Speed 24 mph    
Visibility 10 miles    
Events      
T = Trace of Precipitation, MM = Missing Value Source: NWS Daily Summary

Daily Weather History Graph

Daily Weather History Graph

Search for Another Location

Airport:

Trip Planner

Search our weather history database for the weather conditions in past years. The results will help you decide how hot, cold, wet, or windy it might be!

Date:

Astronomy

Mar. 09, 2013 Rise Set
Actual Time 6:43 AM MST 6:15 PM MST
Civil Twilight 6:12 AM MST 6:47 PM MST
Nautical Twilight 5:36 AM MST 7:23 PM MST
Astronomical Twilight 4:59 AM MST 8:00 PM MST
Moon 5:18 AM MST (3/9) 4:15 PM MST (3/9)
Length of Visible Light 12h 34m
Length of Day
11h 31m
Waning Crescent, 5% of the Moon is Illuminated
Mar 9
Waning Crescent
Mar 11
New
Mar 19
First Quarter
Mar 27
Full
Apr 2
Last Quarter

Hourly Weather History & Observations

Time (MST) Temp. Windchill Dew Point Humidity Pressure Visibility Wind Dir Wind Speed Gust Speed Precip Events Conditions
12:53 AM 16.0 °F - 12.9 °F 88% 30.08 in 8.0 mi Calm Calm - N/A   Clear
1:53 AM 17.1 °F 8.7 °F 14.0 °F 88% 30.08 in 8.0 mi West 5.8 mph - N/A   Clear
2:53 AM 19.9 °F 12.1 °F 17.1 °F 89% 30.07 in 9.0 mi West 5.8 mph - N/A   Mostly Cloudy
3:53 AM 21.0 °F 14.6 °F 18.0 °F 88% 30.07 in 9.0 mi WNW 4.6 mph - N/A   Partly Cloudy
4:53 AM 18.0 °F 8.7 °F 15.1 °F 88% 30.10 in 9.0 mi NW 6.9 mph - N/A   Mostly Cloudy
5:53 AM 19.9 °F 11.1 °F 17.1 °F 89% 30.12 in 9.0 mi West 6.9 mph - N/A   Overcast
6:53 AM 24.1 °F 13.7 °F 21.0 °F 88% 30.14 in 9.0 mi WSW 10.4 mph - N/A   Overcast
7:53 AM 24.1 °F 12.5 °F 19.9 °F 84% 30.16 in 10.0 mi SW 12.7 mph - N/A   Scattered Clouds
8:53 AM 28.0 °F 18.6 °F 23.0 °F 81% 30.18 in 10.0 mi SW 10.4 mph - N/A   Clear
9:53 AM 30.9 °F 20.7 °F 21.0 °F 67% 30.20 in 10.0 mi West 13.8 mph - N/A   Partly Cloudy
10:53 AM 35.1 °F 27.4 °F 23.0 °F 61% 30.22 in 10.0 mi West 10.4 mph - N/A   Clear
11:53 AM 39.9 °F 32.5 °F 25.0 °F 55% 30.21 in 10.0 mi NW 12.7 mph 17.3 mph N/A   Clear
12:53 PM 39.0 °F 29.6 °F 23.0 °F 53% 30.24 in 10.0 mi NNW 18.4 mph - N/A   Clear
1:53 PM 39.0 °F 30.3 °F 17.1 °F 41% 30.25 in 10.0 mi NW 16.1 mph - N/A   Clear
2:53 PM 39.0 °F 31.0 °F 17.1 °F 41% 30.25 in 10.0 mi NNW 13.8 mph 19.6 mph N/A   Clear
3:53 PM 39.0 °F 31.8 °F 18.0 °F 43% 30.27 in 10.0 mi NNW 11.5 mph - N/A   Clear
4:53 PM 37.9 °F 31.5 °F 19.9 °F 48% 30.29 in 10.0 mi NNW 9.2 mph - N/A   Clear
5:53 PM 35.1 °F 31.0 °F 19.9 °F 54% 30.29 in 10.0 mi NW 4.6 mph - N/A   Clear
6:53 PM 28.9 °F - 21.0 °F 72% 30.29 in 10.0 mi Calm Calm - N/A   Clear
7:53 PM 26.1 °F 18.4 °F 21.0 °F 81% 30.31 in 10.0 mi South 6.9 mph - N/A   Clear
8:53 PM 26.1 °F - 19.9 °F 78% 30.30 in 10.0 mi Calm Calm - N/A   Clear
9:53 PM 25.0 °F 20.7 °F 19.9 °F 81% 30.30 in 10.0 mi SW 3.5 mph - N/A   Clear
10:53 PM 24.1 °F - 19.0 °F 81% 30.28 in 10.0 mi Calm Calm - N/A   Clear
11:53 PM 23.0 °F - 19.0 °F 85% 30.27 in 10.0 mi Calm Calm - N/A   Clear